#timestamp,LO_Frequency,Hit,StdDev 
1607346015.6,286047001.7,N
1607346035.5,286047002.2,N
1607346055.3,286047000.6,N
1607346075.1,286046998.5,N
1607346095.9,286046999.1,N
1607346115.7,286047000.5,N
1607346135.6,286046999.7,N
1607346155.4,286046999.4,N
1607346175.2,286046997.7,N
1607346195.1,286047000.7,N
1607346196.0,286047000.7,N
1607346215.8,286046998.6,N
1607346235.6,286046996.7,N
1607346255.5,286047000.4,N
1607346275.3,286047001.9,N
1607346295.2,286047001.2,N
1607346315.9,286046999.6,N
1607346335.7,286046996.7,N
1607346355.6,286046999.4,N
1607346375.4,286046999.5,N
1607346395.2,286046998.5,N
1607346415.1,286046999.4,N
1607346416.0,286046999.4,N
1607346435.8,286047001.0,N
1607346455.7,286046998.4,N
1607346475.5,286047001.3,N
1607346495.3,286047003.4,N
1607346515.2,286047002.0,N
1607346535.0,286047003.9,N
1607346535.9,286047003.9,N
1607346555.7,286047001.5,N
1607346575.6,286047001.8,N
1607346595.4,286047006.0,Y
1607346615.3,286047004.4,P
1607346635.1,286047003.9,N
1607346636.0,286047003.9,N
1607346655.8,286047002.4,N
1607346675.7,286047000.6,N
1607346695.5,286047002.4,N
1607346715.3,286046999.8,N
1607346735.2,286047002.1,N
1607346755.0,286047000.1,N
1607346755.9,286047000.1,N
1607346775.8,286047001.5,N
1607346795.6,286046998.2,N
1607346815.4,286046998.7,N
1607346835.3,286047002.7,N
1607346855.1,286046998.2,N
1607346875.8,286046998.3,N
1607346895.7,286046999.5,N
1607346915.5,286046997.9,N
1607346935.4,286046998.9,N
1607346955.2,286046995.3,N
1607346975.0,286046998.4,N
1607346975.9,286046998.4,N
1607346995.8,286046997.6,N
1607347015.6,286046997.7,N
1607347035.4,286046997.0,N
1607347055.3,286046999.4,N
1607347075.1,286046997.7,N
1607347095.9,286046998.3,N
1607347115.7,286046995.3,N
1607347135.5,286046995.0,N
1607347155.4,286046997.6,N
1607347175.2,286046995.3,N
1607347195.1,286046997.7,N
1607347196.0,286046997.7,N
1607347215.8,286046995.1,N
1607347235.6,286046996.6,N
1607347255.5,286046998.0,N
1607347275.3,286046997.5,N
1607347295.1,286046995.3,N
1607347315.9,286046995.5,N
1607347335.7,286046995.6,N
1607347355.6,286046994.9,Y
1607347375.4,286046998.5,P
1607347395.2,286047000.9,N
1607347415.1,286047001.3,N
1607347416.0,286047001.3,N
1607347435.8,286047004.4,N
1607347455.6,286047001.9,N
1607347475.5,286047002.0,N
1607347495.3,286047001.0,N
1607347515.2,286046998.6,N
1607347535.9,286046998.4,N
1607347555.7,286047002.6,N
1607347575.6,286047000.0,N
1607347595.4,286047002.3,N
1607347615.2,286046998.6,N
1607347635.1,286046998.2,N
1607347636.0,286046998.2,N
1607347655.8,286046998.4,N
1607347675.7,286046999.4,N
1607347695.5,286046999.4,N
1607347715.3,286046998.8,N
1607347735.2,286047001.2,N
1607347755.0,286046998.7,N
1607347755.9,286046998.7,N
1607347775.7,286046999.1,N
1607347795.6,286046998.2,N
1607347815.4,286047001.1,N
1607347835.3,286047000.4,N
1607347855.1,286047000.2,N
1607347856.0,286047000.2,N
1607347875.8,286047004.2,N
1607347895.7,286046998.4,N
1607347915.5,286046999.5,N
1607347935.3,286046996.7,N
1607347955.2,286046997.7,N
1607347975.0,286046996.8,N
1607347975.9,286046996.8,N
1607347995.8,286046998.1,N
1607348015.6,286046999.7,N
1607348035.4,286047000.8,N
1607348055.3,286047002.1,N
1607348075.1,286047002.4,N
1607348095.8,286047004.0,N
1607348115.7,286047003.6,N
1607348135.5,286047001.5,N
1607348155.4,286047003.0,N
1607348175.2,286047001.6,N
1607348195.0,286047001.9,N
1607348195.9,286047001.9,N
1607348215.8,286047007.5,Y
1607348235.6,286047005.8,P
1607348255.4,286047004.3,N
1607348275.3,286047004.1,N
1607348295.1,286047003.6,N
1607348315.9,286047002.9,N
1607348335.7,286047002.3,N
1607348355.5,286047000.5,N
1607348375.4,286047001.1,N
1607348395.2,286047004.4,N
1607348415.0,286047003.2,N
1607348415.9,286047003.2,N
1607348435.8,286047005.6,Y
1607348455.6,286046998.1,P
1607348475.5,286047000.6,N
1607348495.3,286046999.4,N
1607348515.1,286047000.3,N
1607348535.9,286046998.1,N
1607348555.7,286046996.6,N
1607348575.6,286046993.7,Y
1607348595.4,286046999.1,P
1607348615.2,286046997.9,P
1607348635.1,286046998.4,N
1607348636.0,286046998.4,N
1607348655.8,286046997.3,Y
1607348675.6,286046998.3,P
1607348695.5,286046999.3,P
1607348715.3,286046999.1,N
1607348735.2,286047001.0,N
1607348755.9,286047002.5,N
1607348775.7,286046998.2,N
1607348795.6,286046999.9,N
1607348815.4,286047001.2,N
1607348835.2,286047002.8,N
1607348855.1,286047002.6,N
1607348856.0,286047002.6,N
1607348875.8,286046998.7,N
1607348895.7,286047000.6,N
1607348915.5,286047002.7,N
1607348935.3,286047001.5,N
1607348955.2,286047006.0,Y
1607348975.0,286047002.3,P
1607348975.9,286047002.3,N
1607348995.8,286047002.2,N
1607349015.6,286046999.4,N
1607349035.4,286046997.7,N
1607349055.3,286046994.9,N
1607349075.1,286046998.1,N
1607349095.8,286046996.9,N
1607349115.7,286047000.7,N
1607349135.5,286046999.1,N
1607349155.4,286046997.0,N
1607349175.2,286047000.8,N
1607349195.0,286047002.0,N
1607349195.9,286047002.0,N
1607349215.8,286047000.3,N
1607349235.6,286047000.8,N
1607349255.5,286047002.5,N
1607349275.3,286047001.8,N
1607349295.1,286047001.3,N
1607349315.9,286047000.2,N
1607349335.7,286046998.4,N
1607349355.5,286047001.1,N
1607349375.4,286046998.8,N
1607349395.2,286046997.3,N
1607349415.1,286046998.8,N
1607349416.0,286046998.8,N
1607349435.8,286047000.8,N
1607349455.6,286046998.4,N
1607349475.5,286046998.9,N
1607349495.3,286046998.5,N
1607349515.1,286046998.7,N
1607349535.9,286046997.8,N
1607349555.7,286046997.3,N
1607349575.6,286046997.7,N
1607349595.4,286046997.3,N
